Location: Newark
(14.1000°N, 87.2167°W)
Time: 10:00:30
(UTC+00:00)

Hubble Space Telescope - Pass Details

Date: 24 July 2019
Orbit: 536 x 540 km, 28.5° (Epoch: 25 August)

Event Time Altitude Azimuth Distance (km) Brightness Sun altitude
Exits shadow 09:11:20 20° 90° (E) 1,274 3.2 -31.0°
Drops below altitude 10° 09:12:46 10° 80° (E) 1,778 4.2 -30.8°
Sets 09:15:07 0° 73° (ENE) 2,668 5.4 -30.3°
